Orbital Elements at Epoch 2459200.5 (2020-Dec-17.0) TDB
Reference: JPL 29 (heliocentric ecliptic J2000)
Element | Value | Uncertainty (1-sigma) | Units |
e | .1955872462872753 | 3.2424e-08 | |
a | 3.173968984881399 | 1.4261e-08 | au |
q | 2.553181131327228 | 1.0071e-07 | au |
i | 1.239634091488461 | 3.7222e-06 | deg |
node | 51.28246084837767 | 0.00017996 | deg |
peri | 81.17250511669748 | 0.0001803 | deg |
M | 78.41718782886353 | 1.0056e-05 | deg |
tp | 2458750.604957313241 (2019-Sep-24.10495731) | 5.7187e-05 | TDB |
period | 2065.391782738973 5.65 | 1.392e-05 3.811e-08 | d yr |
n | .1743010711132946 | 1.1747e-09 | deg/d |
Q | 3.794756838435569 | 1.705e-08 | au |
|
| | Orbit Determination Parameters
Additional Information
|